Index of /20260428/WXO-DD/model_rdps/10km/18/014
Name Last modified Size Description
Parent Directory -
20260428T18Z_MSC_RDPS_AbsoluteVorticity_IsbL-0250_RLatLon0.09_PT014H.grib2 2026-04-28 20:44 635K
20260428T18Z_MSC_RDPS_AbsoluteVorticity_IsbL-0500_RLatLon0.09_PT014H.grib2 2026-04-28 20:44 577K
20260428T18Z_MSC_RDPS_AbsoluteVorticity_IsbL-0700_RLatLon0.09_PT014H.grib2 2026-04-28 20:44 618K
20260428T18Z_MSC_RDPS_AbsoluteVorticity_IsbL-0850_RLatLon0.09_PT014H.grib2 2026-04-28 20:44 773K
20260428T18Z_MSC_RDPS_AirTemp_AGL-120m_RLatLon0.09_PT014H.grib2 2026-04-28 20:44 389K
20260428T18Z_MSC_RDPS_AirTemp_AGL-2m_RLatLon0.09_PT014H.grib2 2026-04-28 20:44 624K
20260428T18Z_MSC_RDPS_AirTemp_AGL-40m_RLatLon0.09_PT014H.grib2 2026-04-28 20:44 404K
20260428T18Z_MSC_RDPS_AirTemp_AGL-80m_RLatLon0.09_PT014H.grib2 2026-04-28 20:44 396K
20260428T18Z_MSC_RDPS_AirTemp_IsbL-0001_RLatLon0.09_PT014H.grib2 2026-04-28 20:44 252K
20260428T18Z_MSC_RDPS_AirTemp_IsbL-0005_RLatLon0.09_PT014H.grib2 2026-04-28 20:44 292K
20260428T18Z_MSC_RDPS_AirTemp_IsbL-0010_RLatLon0.09_PT014H.grib2 2026-04-28 20:44 301K
20260428T18Z_MSC_RDPS_AirTemp_IsbL-0020_RLatLon0.09_PT014H.grib2 2026-04-28 20:44 316K
20260428T18Z_MSC_RDPS_AirTemp_IsbL-0030_RLatLon0.09_PT014H.grib2 2026-04-28 20:44 335K
20260428T18Z_MSC_RDPS_AirTemp_IsbL-0050_RLatLon0.09_PT014H.grib2 2026-04-28 20:44 315K
20260428T18Z_MSC_RDPS_AirTemp_IsbL-0100_RLatLon0.09_PT014H.grib2 2026-04-28 20:44 431K
20260428T18Z_MSC_RDPS_AirTemp_IsbL-0150_RLatLon0.09_PT014H.grib2 2026-04-28 20:44 434K
20260428T18Z_MSC_RDPS_AirTemp_IsbL-0175_RLatLon0.09_PT014H.grib2 2026-04-28 20:44 421K
20260428T18Z_MSC_RDPS_AirTemp_IsbL-0200_RLatLon0.09_PT014H.grib2 2026-04-28 20:44 424K
20260428T18Z_MSC_RDPS_AirTemp_IsbL-0225_RLatLon0.09_PT014H.grib2 2026-04-28 20:44 426K
20260428T18Z_MSC_RDPS_AirTemp_IsbL-0250_RLatLon0.09_PT014H.grib2 2026-04-28 20:44 436K
20260428T18Z_MSC_RDPS_AirTemp_IsbL-0275_RLatLon0.09_PT014H.grib2 2026-04-28 20:44 416K
20260428T18Z_MSC_RDPS_AirTemp_IsbL-0300_RLatLon0.09_PT014H.grib2 2026-04-28 20:44 422K
20260428T18Z_MSC_RDPS_AirTemp_IsbL-0350_RLatLon0.09_PT014H.grib2 2026-04-28 20:44 435K
20260428T18Z_MSC_RDPS_AirTemp_IsbL-0400_RLatLon0.09_PT014H.grib2 2026-04-28 20:44 434K
20260428T18Z_MSC_RDPS_AirTemp_IsbL-0450_RLatLon0.09_PT014H.grib2 2026-04-28 20:44 439K
20260428T18Z_MSC_RDPS_AirTemp_IsbL-0500_RLatLon0.09_PT014H.grib2 2026-04-28 20:44 414K
20260428T18Z_MSC_RDPS_AirTemp_IsbL-0550_RLatLon0.09_PT014H.grib2 2026-04-28 20:44 428K
20260428T18Z_MSC_RDPS_AirTemp_IsbL-0600_RLatLon0.09_PT014H.grib2 2026-04-28 20:44 443K
20260428T18Z_MSC_RDPS_AirTemp_IsbL-0650_RLatLon0.09_PT014H.grib2 2026-04-28 20:44 460K
20260428T18Z_MSC_RDPS_AirTemp_IsbL-0700_RLatLon0.09_PT014H.grib2 2026-04-28 20:44 376K
20260428T18Z_MSC_RDPS_AirTemp_IsbL-0750_RLatLon0.09_PT014H.grib2 2026-04-28 20:44 407K
20260428T18Z_MSC_RDPS_AirTemp_IsbL-0800_RLatLon0.09_PT014H.grib2 2026-04-28 20:44 451K
20260428T18Z_MSC_RDPS_AirTemp_IsbL-0850_RLatLon0.09_PT014H.grib2 2026-04-28 20:44 502K
20260428T18Z_MSC_RDPS_AirTemp_IsbL-0875_RLatLon0.09_PT014H.grib2 2026-04-28 20:44 519K
20260428T18Z_MSC_RDPS_AirTemp_IsbL-0900_RLatLon0.09_PT014H.grib2 2026-04-28 20:44 525K
20260428T18Z_MSC_RDPS_AirTemp_IsbL-0925_RLatLon0.09_PT014H.grib2 2026-04-28 20:44 520K
20260428T18Z_MSC_RDPS_AirTemp_IsbL-0950_RLatLon0.09_PT014H.grib2 2026-04-28 20:44 523K
20260428T18Z_MSC_RDPS_AirTemp_IsbL-0970_RLatLon0.09_PT014H.grib2 2026-04-28 20:44 514K
20260428T18Z_MSC_RDPS_AirTemp_IsbL-0985_RLatLon0.09_PT014H.grib2 2026-04-28 20:44 499K
20260428T18Z_MSC_RDPS_AirTemp_IsbL-1000_RLatLon0.09_PT014H.grib2 2026-04-28 20:44 482K
20260428T18Z_MSC_RDPS_AirTemp_IsbL-1015_RLatLon0.09_PT014H.grib2 2026-04-28 20:44 483K
20260428T18Z_MSC_RDPS_Albedo_Sfc_RLatLon0.09_PT014H.grib2 2026-04-28 20:44 162K
20260428T18Z_MSC_RDPS_CAPE_Sfc_RLatLon0.09_PT014H.grib2 2026-04-28 20:44 1.6M
20260428T18Z_MSC_RDPS_CIN_Sfc_RLatLon0.09_PT014H.grib2 2026-04-28 20:44 1.1M
20260428T18Z_MSC_RDPS_CloudWater_EAtm_RLatLon0.09_PT014H.grib2 2026-04-28 20:44 218K
20260428T18Z_MSC_RDPS_ConvectivePrecip-Accum_Sfc_RLatLon0.09_PT014H.grib2 2026-04-28 20:44 699K
20260428T18Z_MSC_RDPS_DewPointDepression_AGL-2m_RLatLon0.09_PT014H.grib2 2026-04-28 20:44 391K
20260428T18Z_MSC_RDPS_DewPointDepression_IsbL-0001_RLatLon0.09_PT014H.grib2 2026-04-28 20:44 193
20260428T18Z_MSC_RDPS_DewPointDepression_IsbL-0005_RLatLon0.09_PT014H.grib2 2026-04-28 20:44 193
20260428T18Z_MSC_RDPS_DewPointDepression_IsbL-0010_RLatLon0.09_PT014H.grib2 2026-04-28 20:44 193
20260428T18Z_MSC_RDPS_DewPointDepression_IsbL-0020_RLatLon0.09_PT014H.grib2 2026-04-28 20:44 193
20260428T18Z_MSC_RDPS_DewPointDepression_IsbL-0030_RLatLon0.09_PT014H.grib2 2026-04-28 20:44 193
20260428T18Z_MSC_RDPS_DewPointDepression_IsbL-0050_RLatLon0.09_PT014H.grib2 2026-04-28 20:44 84K
20260428T18Z_MSC_RDPS_DewPointDepression_IsbL-0100_RLatLon0.09_PT014H.grib2 2026-04-28 20:44 134K
20260428T18Z_MSC_RDPS_DewPointDepression_IsbL-0150_RLatLon0.09_PT014H.grib2 2026-04-28 20:44 155K
20260428T18Z_MSC_RDPS_DewPointDepression_IsbL-0175_RLatLon0.09_PT014H.grib2 2026-04-28 20:44 184K
20260428T18Z_MSC_RDPS_DewPointDepression_IsbL-0200_RLatLon0.09_PT014H.grib2 2026-04-28 20:44 222K
20260428T18Z_MSC_RDPS_DewPointDepression_IsbL-0225_RLatLon0.09_PT014H.grib2 2026-04-28 20:44 268K
20260428T18Z_MSC_RDPS_DewPointDepression_IsbL-0250_RLatLon0.09_PT014H.grib2 2026-04-28 20:44 305K
20260428T18Z_MSC_RDPS_DewPointDepression_IsbL-0275_RLatLon0.09_PT014H.grib2 2026-04-28 20:44 311K
20260428T18Z_MSC_RDPS_DewPointDepression_IsbL-0300_RLatLon0.09_PT014H.grib2 2026-04-28 20:44 331K
20260428T18Z_MSC_RDPS_DewPointDepression_IsbL-0350_RLatLon0.09_PT014H.grib2 2026-04-28 20:44 338K
20260428T18Z_MSC_RDPS_DewPointDepression_IsbL-0400_RLatLon0.09_PT014H.grib2 2026-04-28 20:44 346K
20260428T18Z_MSC_RDPS_DewPointDepression_IsbL-0450_RLatLon0.09_PT014H.grib2 2026-04-28 20:44 352K
20260428T18Z_MSC_RDPS_DewPointDepression_IsbL-0500_RLatLon0.09_PT014H.grib2 2026-04-28 20:44 359K
20260428T18Z_MSC_RDPS_DewPointDepression_IsbL-0550_RLatLon0.09_PT014H.grib2 2026-04-28 20:44 366K
20260428T18Z_MSC_RDPS_DewPointDepression_IsbL-0600_RLatLon0.09_PT014H.grib2 2026-04-28 20:44 373K
20260428T18Z_MSC_RDPS_DewPointDepression_IsbL-0650_RLatLon0.09_PT014H.grib2 2026-04-28 20:44 376K
20260428T18Z_MSC_RDPS_DewPointDepression_IsbL-0700_RLatLon0.09_PT014H.grib2 2026-04-28 20:44 388K
20260428T18Z_MSC_RDPS_DewPointDepression_IsbL-0750_RLatLon0.09_PT014H.grib2 2026-04-28 20:44 407K
20260428T18Z_MSC_RDPS_DewPointDepression_IsbL-0800_RLatLon0.09_PT014H.grib2 2026-04-28 20:44 438K
20260428T18Z_MSC_RDPS_DewPointDepression_IsbL-0850_RLatLon0.09_PT014H.grib2 2026-04-28 20:44 464K
20260428T18Z_MSC_RDPS_DewPointDepression_IsbL-0875_RLatLon0.09_PT014H.grib2 2026-04-28 20:44 465K
20260428T18Z_MSC_RDPS_DewPointDepression_IsbL-0900_RLatLon0.09_PT014H.grib2 2026-04-28 20:44 457K
20260428T18Z_MSC_RDPS_DewPointDepression_IsbL-0925_RLatLon0.09_PT014H.grib2 2026-04-28 20:44 447K
20260428T18Z_MSC_RDPS_DewPointDepression_IsbL-0950_RLatLon0.09_PT014H.grib2 2026-04-28 20:44 443K
20260428T18Z_MSC_RDPS_DewPointDepression_IsbL-0970_RLatLon0.09_PT014H.grib2 2026-04-28 20:44 433K
20260428T18Z_MSC_RDPS_DewPointDepression_IsbL-0985_RLatLon0.09_PT014H.grib2 2026-04-28 20:44 426K
20260428T18Z_MSC_RDPS_DewPointDepression_IsbL-1000_RLatLon0.09_PT014H.grib2 2026-04-28 20:44 420K
20260428T18Z_MSC_RDPS_DewPointDepression_IsbL-1015_RLatLon0.09_PT014H.grib2 2026-04-28 20:44 412K
20260428T18Z_MSC_RDPS_DewPoint_AGL-2m_RLatLon0.09_PT014H.grib2 2026-04-28 20:44 306K
20260428T18Z_MSC_RDPS_DownwardLongwaveRadiationFlux-Accum_Sfc_RLatLon0.09_PT014H.grib2 2026-04-28 20:44 493K
20260428T18Z_MSC_RDPS_DownwardShortwaveRadiationFlux-Accum_NTAtm_RLatLon0.09_PT014H.grib2 2026-04-28 20:44 113K
20260428T18Z_MSC_RDPS_DownwardShortwaveRadiationFlux-Accum_Sfc_RLatLon0.09_PT014H.grib2 2026-04-28 20:44 524K
20260428T18Z_MSC_RDPS_FreezingRain-Accum1h_Sfc_RLatLon0.09_PT014H.grib2 2026-04-28 20:44 33K
20260428T18Z_MSC_RDPS_FreezingRain-Accum_Sfc_RLatLon0.09_PT014H.grib2 2026-04-28 20:44 83K
20260428T18Z_MSC_RDPS_GeopotentialHeight_IsbL-0001_RLatLon0.09_PT014H.grib2 2026-04-28 20:44 239K
20260428T18Z_MSC_RDPS_GeopotentialHeight_IsbL-0005_RLatLon0.09_PT014H.grib2 2026-04-28 20:44 338K
20260428T18Z_MSC_RDPS_GeopotentialHeight_IsbL-0010_RLatLon0.09_PT014H.grib2 2026-04-28 20:44 306K
20260428T18Z_MSC_RDPS_GeopotentialHeight_IsbL-0020_RLatLon0.09_PT014H.grib2 2026-04-28 20:44 305K
20260428T18Z_MSC_RDPS_GeopotentialHeight_IsbL-0030_RLatLon0.09_PT014H.grib2 2026-04-28 20:44 306K
20260428T18Z_MSC_RDPS_GeopotentialHeight_IsbL-0050_RLatLon0.09_PT014H.grib2 2026-04-28 20:44 309K
20260428T18Z_MSC_RDPS_GeopotentialHeight_IsbL-0100_RLatLon0.09_PT014H.grib2 2026-04-28 20:44 289K
20260428T18Z_MSC_RDPS_GeopotentialHeight_IsbL-0150_RLatLon0.09_PT014H.grib2 2026-04-28 20:44 231K
20260428T18Z_MSC_RDPS_GeopotentialHeight_IsbL-0175_RLatLon0.09_PT014H.grib2 2026-04-28 20:44 265K
20260428T18Z_MSC_RDPS_GeopotentialHeight_IsbL-0200_RLatLon0.09_PT014H.grib2 2026-04-28 20:44 268K
20260428T18Z_MSC_RDPS_GeopotentialHeight_IsbL-0225_RLatLon0.09_PT014H.grib2 2026-04-28 20:44 269K
20260428T18Z_MSC_RDPS_GeopotentialHeight_IsbL-0250_RLatLon0.09_PT014H.grib2 2026-04-28 20:44 269K
20260428T18Z_MSC_RDPS_GeopotentialHeight_IsbL-0275_RLatLon0.09_PT014H.grib2 2026-04-28 20:44 268K
20260428T18Z_MSC_RDPS_GeopotentialHeight_IsbL-0300_RLatLon0.09_PT014H.grib2 2026-04-28 20:44 268K
20260428T18Z_MSC_RDPS_GeopotentialHeight_IsbL-0350_RLatLon0.09_PT014H.grib2 2026-04-28 20:44 234K
20260428T18Z_MSC_RDPS_GeopotentialHeight_IsbL-0400_RLatLon0.09_PT014H.grib2 2026-04-28 20:44 230K
20260428T18Z_MSC_RDPS_GeopotentialHeight_IsbL-0450_RLatLon0.09_PT014H.grib2 2026-04-28 20:44 299K
20260428T18Z_MSC_RDPS_GeopotentialHeight_IsbL-0500_RLatLon0.09_PT014H.grib2 2026-04-28 20:44 293K
20260428T18Z_MSC_RDPS_GeopotentialHeight_IsbL-0550_RLatLon0.09_PT014H.grib2 2026-04-28 20:44 289K
20260428T18Z_MSC_RDPS_GeopotentialHeight_IsbL-0600_RLatLon0.09_PT014H.grib2 2026-04-28 20:44 287K
20260428T18Z_MSC_RDPS_GeopotentialHeight_IsbL-0650_RLatLon0.09_PT014H.grib2 2026-04-28 20:44 255K
20260428T18Z_MSC_RDPS_GeopotentialHeight_IsbL-0700_RLatLon0.09_PT014H.grib2 2026-04-28 20:44 253K
20260428T18Z_MSC_RDPS_GeopotentialHeight_IsbL-0750_RLatLon0.09_PT014H.grib2 2026-04-28 20:44 336K
20260428T18Z_MSC_RDPS_GeopotentialHeight_IsbL-0800_RLatLon0.09_PT014H.grib2 2026-04-28 20:44 343K
20260428T18Z_MSC_RDPS_GeopotentialHeight_IsbL-0850_RLatLon0.09_PT014H.grib2 2026-04-28 20:44 354K
20260428T18Z_MSC_RDPS_GeopotentialHeight_IsbL-0875_RLatLon0.09_PT014H.grib2 2026-04-28 20:44 356K
20260428T18Z_MSC_RDPS_GeopotentialHeight_IsbL-0900_RLatLon0.09_PT014H.grib2 2026-04-28 20:44 362K
20260428T18Z_MSC_RDPS_GeopotentialHeight_IsbL-0925_RLatLon0.09_PT014H.grib2 2026-04-28 20:44 364K
20260428T18Z_MSC_RDPS_GeopotentialHeight_IsbL-0950_RLatLon0.09_PT014H.grib2 2026-04-28 20:44 370K
20260428T18Z_MSC_RDPS_GeopotentialHeight_IsbL-0970_RLatLon0.09_PT014H.grib2 2026-04-28 20:44 375K
20260428T18Z_MSC_RDPS_GeopotentialHeight_IsbL-0985_RLatLon0.09_PT014H.grib2 2026-04-28 20:44 383K
20260428T18Z_MSC_RDPS_GeopotentialHeight_IsbL-1000_RLatLon0.09_PT014H.grib2 2026-04-28 20:44 394K
20260428T18Z_MSC_RDPS_GeopotentialHeight_IsbL-1015_RLatLon0.09_PT014H.grib2 2026-04-28 20:44 407K
20260428T18Z_MSC_RDPS_Humidex_Sfc_RLatLon0.09_PT014H.grib2 2026-04-28 20:44 2.4M
20260428T18Z_MSC_RDPS_IcePellets-Accum1h_Sfc_RLatLon0.09_PT014H.grib2 2026-04-28 20:44 6.0K
20260428T18Z_MSC_RDPS_IcePellets-Accum_Sfc_RLatLon0.09_PT014H.grib2 2026-04-28 20:44 12K
20260428T18Z_MSC_RDPS_KIndex_Sfc_RLatLon0.09_PT014H.grib2 2026-04-28 20:44 2.5M
20260428T18Z_MSC_RDPS_LatentHeatNetFlux_Sfc_RLatLon0.09_PT014H.grib2 2026-04-28 20:44 403K
20260428T18Z_MSC_RDPS_LiftedIndex-MU-VT_IsbL-0500_RLatLon0.09_PT014H.grib2 2026-04-28 20:44 2.4M
20260428T18Z_MSC_RDPS_NetLongwaveRadiationFlux-Accum_Sfc_RLatLon0.09_PT014H.grib2 2026-04-28 20:44 631K
20260428T18Z_MSC_RDPS_NetShortwaveRadiationFlux-Accum_Sfc_RLatLon0.09_PT014H.grib2 2026-04-28 20:44 516K
20260428T18Z_MSC_RDPS_PlanetaryBoundaryLayerHeight_Sfc_RLatLon0.09_PT014H.grib2 2026-04-28 20:44 1.1M
20260428T18Z_MSC_RDPS_Precip-Accum1h_Sfc_RLatLon0.09_PT014H.grib2 2026-04-28 20:44 1.2M
20260428T18Z_MSC_RDPS_Precip-Accum_Sfc_RLatLon0.09_PT014H.grib2 2026-04-28 20:44 1.6M
20260428T18Z_MSC_RDPS_PrecipRate_Sfc_RLatLon0.09_PT014H.grib2 2026-04-28 20:44 160K
20260428T18Z_MSC_RDPS_PrecipType-Instant_Sfc_RLatLon0.09_PT014H.grib2 2026-04-28 20:44 549K
20260428T18Z_MSC_RDPS_Pressure-Trend3h_Sfc_RLatLon0.09_PT014H.grib2 2026-04-28 20:44 1.2M
20260428T18Z_MSC_RDPS_Pressure_MSL_RLatLon0.09_PT014H.grib2 2026-04-28 20:44 293K
20260428T18Z_MSC_RDPS_Pressure_PVU-1.5_RLatLon0.09_PT014H.grib2 2026-04-28 20:44 2.5M
20260428T18Z_MSC_RDPS_Pressure_PVU-1_RLatLon0.09_PT014H.grib2 2026-04-28 20:44 2.4M
20260428T18Z_MSC_RDPS_Pressure_PVU-2_RLatLon0.09_PT014H.grib2 2026-04-28 20:44 2.4M
20260428T18Z_MSC_RDPS_Pressure_Sfc_RLatLon0.09_PT014H.grib2 2026-04-28 20:44 500K
20260428T18Z_MSC_RDPS_RadiativeTemp_Sfc_RLatLon0.09_PT014H.grib2 2026-04-28 20:44 299K
20260428T18Z_MSC_RDPS_Rain-Accum1h_Sfc_RLatLon0.09_PT014H.grib2 2026-04-28 20:44 511K
20260428T18Z_MSC_RDPS_Rain-Accum_Sfc_RLatLon0.09_PT014H.grib2 2026-04-28 20:44 1.2M
20260428T18Z_MSC_RDPS_RelativeHumidity_AGL-2m_RLatLon0.09_PT014H.grib2 2026-04-28 20:44 1.0M
20260428T18Z_MSC_RDPS_RelativeHumidity_IsbL-0010_RLatLon0.09_PT014H.grib2 2026-04-28 20:44 626K
20260428T18Z_MSC_RDPS_RelativeHumidity_IsbL-0020_RLatLon0.09_PT014H.grib2 2026-04-28 20:44 650K
20260428T18Z_MSC_RDPS_RelativeHumidity_IsbL-0030_RLatLon0.09_PT014H.grib2 2026-04-28 20:44 537K
20260428T18Z_MSC_RDPS_RelativeHumidity_IsbL-0050_RLatLon0.09_PT014H.grib2 2026-04-28 20:44 325K
20260428T18Z_MSC_RDPS_RelativeHumidity_IsbL-0100_RLatLon0.09_PT014H.grib2 2026-04-28 20:44 284K
20260428T18Z_MSC_RDPS_RelativeHumidity_IsbL-0150_RLatLon0.09_PT014H.grib2 2026-04-28 20:44 423K
20260428T18Z_MSC_RDPS_RelativeHumidity_IsbL-0175_RLatLon0.09_PT014H.grib2 2026-04-28 20:44 496K
20260428T18Z_MSC_RDPS_RelativeHumidity_IsbL-0200_RLatLon0.09_PT014H.grib2 2026-04-28 20:44 564K
20260428T18Z_MSC_RDPS_RelativeHumidity_IsbL-0225_RLatLon0.09_PT014H.grib2 2026-04-28 20:44 625K
20260428T18Z_MSC_RDPS_RelativeHumidity_IsbL-0250_RLatLon0.09_PT014H.grib2 2026-04-28 20:44 691K
20260428T18Z_MSC_RDPS_RelativeHumidity_IsbL-0275_RLatLon0.09_PT014H.grib2 2026-04-28 20:44 721K
20260428T18Z_MSC_RDPS_RelativeHumidity_IsbL-0300_RLatLon0.09_PT014H.grib2 2026-04-28 20:44 767K
20260428T18Z_MSC_RDPS_RelativeHumidity_IsbL-0350_RLatLon0.09_PT014H.grib2 2026-04-28 20:44 789K
20260428T18Z_MSC_RDPS_RelativeHumidity_IsbL-0400_RLatLon0.09_PT014H.grib2 2026-04-28 20:44 799K
20260428T18Z_MSC_RDPS_RelativeHumidity_IsbL-0450_RLatLon0.09_PT014H.grib2 2026-04-28 20:44 801K
20260428T18Z_MSC_RDPS_RelativeHumidity_IsbL-0500_RLatLon0.09_PT014H.grib2 2026-04-28 20:44 807K
20260428T18Z_MSC_RDPS_RelativeHumidity_IsbL-0550_RLatLon0.09_PT014H.grib2 2026-04-28 20:44 820K
20260428T18Z_MSC_RDPS_RelativeHumidity_IsbL-0600_RLatLon0.09_PT014H.grib2 2026-04-28 20:44 846K
20260428T18Z_MSC_RDPS_RelativeHumidity_IsbL-0650_RLatLon0.09_PT014H.grib2 2026-04-28 20:44 855K
20260428T18Z_MSC_RDPS_RelativeHumidity_IsbL-0700_RLatLon0.09_PT014H.grib2 2026-04-28 20:44 866K
20260428T18Z_MSC_RDPS_RelativeHumidity_IsbL-0750_RLatLon0.09_PT014H.grib2 2026-04-28 20:44 919K
20260428T18Z_MSC_RDPS_RelativeHumidity_IsbL-0800_RLatLon0.09_PT014H.grib2 2026-04-28 20:44 1.0M
20260428T18Z_MSC_RDPS_RelativeHumidity_IsbL-0850_RLatLon0.09_PT014H.grib2 2026-04-28 20:44 1.0M
20260428T18Z_MSC_RDPS_RelativeHumidity_IsbL-0875_RLatLon0.09_PT014H.grib2 2026-04-28 20:44 1.0M
20260428T18Z_MSC_RDPS_RelativeHumidity_IsbL-0900_RLatLon0.09_PT014H.grib2 2026-04-28 20:44 1.1M
20260428T18Z_MSC_RDPS_RelativeHumidity_IsbL-0925_RLatLon0.09_PT014H.grib2 2026-04-28 20:44 1.1M
20260428T18Z_MSC_RDPS_RelativeHumidity_IsbL-0950_RLatLon0.09_PT014H.grib2 2026-04-28 20:44 1.1M
20260428T18Z_MSC_RDPS_RelativeHumidity_IsbL-0970_RLatLon0.09_PT014H.grib2 2026-04-28 20:44 1.0M
20260428T18Z_MSC_RDPS_RelativeHumidity_IsbL-0985_RLatLon0.09_PT014H.grib2 2026-04-28 20:44 1.0M
20260428T18Z_MSC_RDPS_RelativeHumidity_IsbL-1000_RLatLon0.09_PT014H.grib2 2026-04-28 20:44 1.0M
20260428T18Z_MSC_RDPS_RelativeHumidity_IsbL-1015_RLatLon0.09_PT014H.grib2 2026-04-28 20:44 1.0M
20260428T18Z_MSC_RDPS_Runoff-Accum_Sfc_RLatLon0.09_PT014H.grib2 2026-04-28 20:44 55K
20260428T18Z_MSC_RDPS_SWEATIndex_Sfc_RLatLon0.09_PT014H.grib2 2026-04-28 20:44 2.4M
20260428T18Z_MSC_RDPS_SeeingIndex_EAtm_RLatLon0.09_PT014H.grib2 2026-04-28 20:44 1.0M
20260428T18Z_MSC_RDPS_SensibleHeatNetFlux_Sfc_RLatLon0.09_PT014H.grib2 2026-04-28 20:44 294K
20260428T18Z_MSC_RDPS_ShowalterIndex_IsbL-0500_RLatLon0.09_PT014H.grib2 2026-04-28 20:44 2.6M
20260428T18Z_MSC_RDPS_SkyTransparencyIndex_EAtm_RLatLon0.09_PT014H.grib2 2026-04-28 20:44 699K
20260428T18Z_MSC_RDPS_Snow-Accum1h_Sfc_RLatLon0.09_PT014H.grib2 2026-04-28 20:44 481K
20260428T18Z_MSC_RDPS_Snow-Accum_Sfc_RLatLon0.09_PT014H.grib2 2026-04-28 20:44 648K
20260428T18Z_MSC_RDPS_SnowDensity_Sfc_RLatLon0.09_PT014H.grib2 2026-04-28 20:44 177K
20260428T18Z_MSC_RDPS_SnowDepth_Sfc_RLatLon0.09_PT014H.grib2 2026-04-28 20:44 691K
20260428T18Z_MSC_RDPS_SoilTemp_DBS-0to10cm_RLatLon0.09_PT014H.grib2 2026-04-28 20:44 213K
20260428T18Z_MSC_RDPS_SoilTemp_Sfc_RLatLon0.09_PT014H.grib2 2026-04-28 20:44 282K
20260428T18Z_MSC_RDPS_SoilVolumetricIceContent_Sfc_RLatLon0.09_PT014H.grib2 2026-04-28 20:44 166K
20260428T18Z_MSC_RDPS_SoilVolumetricWaterContent_DBS-0to10cm_RLatLon0.09_PT014H.grib2 2026-04-28 20:44 264K
20260428T18Z_MSC_RDPS_SoilVolumetricWaterContent_DBS-0to1cm_RLatLon0.09_PT014H.grib2 2026-04-28 20:44 332K
20260428T18Z_MSC_RDPS_SpecificHumidity_AGL-120m_RLatLon0.09_PT014H.grib2 2026-04-28 20:44 481K
20260428T18Z_MSC_RDPS_SpecificHumidity_AGL-2m_RLatLon0.09_PT014H.grib2 2026-04-28 20:44 643K
20260428T18Z_MSC_RDPS_SpecificHumidity_AGL-40m_RLatLon0.09_PT014H.grib2 2026-04-28 20:44 485K
20260428T18Z_MSC_RDPS_SpecificHumidity_AGL-80m_RLatLon0.09_PT014H.grib2 2026-04-28 20:44 482K
20260428T18Z_MSC_RDPS_SpecificHumidity_IsbL-0001_RLatLon0.09_PT014H.grib2 2026-04-28 20:44 377K
20260428T18Z_MSC_RDPS_SpecificHumidity_IsbL-0005_RLatLon0.09_PT014H.grib2 2026-04-28 20:44 358K
20260428T18Z_MSC_RDPS_SpecificHumidity_IsbL-0010_RLatLon0.09_PT014H.grib2 2026-04-28 20:44 396K
20260428T18Z_MSC_RDPS_SpecificHumidity_IsbL-0020_RLatLon0.09_PT014H.grib2 2026-04-28 20:44 387K
20260428T18Z_MSC_RDPS_SpecificHumidity_IsbL-0030_RLatLon0.09_PT014H.grib2 2026-04-28 20:44 372K
20260428T18Z_MSC_RDPS_SpecificHumidity_IsbL-0050_RLatLon0.09_PT014H.grib2 2026-04-28 20:44 462K
20260428T18Z_MSC_RDPS_SpecificHumidity_IsbL-0100_RLatLon0.09_PT014H.grib2 2026-04-28 20:44 452K
20260428T18Z_MSC_RDPS_SpecificHumidity_IsbL-0150_RLatLon0.09_PT014H.grib2 2026-04-28 20:44 492K
20260428T18Z_MSC_RDPS_SpecificHumidity_IsbL-0175_RLatLon0.09_PT014H.grib2 2026-04-28 20:44 449K
20260428T18Z_MSC_RDPS_SpecificHumidity_IsbL-0200_RLatLon0.09_PT014H.grib2 2026-04-28 20:44 462K
20260428T18Z_MSC_RDPS_SpecificHumidity_IsbL-0225_RLatLon0.09_PT014H.grib2 2026-04-28 20:44 459K
20260428T18Z_MSC_RDPS_SpecificHumidity_IsbL-0250_RLatLon0.09_PT014H.grib2 2026-04-28 20:44 515K
20260428T18Z_MSC_RDPS_SpecificHumidity_IsbL-0275_RLatLon0.09_PT014H.grib2 2026-04-28 20:44 475K
20260428T18Z_MSC_RDPS_SpecificHumidity_IsbL-0300_RLatLon0.09_PT014H.grib2 2026-04-28 20:44 449K
20260428T18Z_MSC_RDPS_SpecificHumidity_IsbL-0350_RLatLon0.09_PT014H.grib2 2026-04-28 20:44 570K
20260428T18Z_MSC_RDPS_SpecificHumidity_IsbL-0400_RLatLon0.09_PT014H.grib2 2026-04-28 20:44 526K
20260428T18Z_MSC_RDPS_SpecificHumidity_IsbL-0450_RLatLon0.09_PT014H.grib2 2026-04-28 20:44 577K
20260428T18Z_MSC_RDPS_SpecificHumidity_IsbL-0500_RLatLon0.09_PT014H.grib2 2026-04-28 20:44 513K
20260428T18Z_MSC_RDPS_SpecificHumidity_IsbL-0550_RLatLon0.09_PT014H.grib2 2026-04-28 20:44 582K
20260428T18Z_MSC_RDPS_SpecificHumidity_IsbL-0600_RLatLon0.09_PT014H.grib2 2026-04-28 20:44 631K
20260428T18Z_MSC_RDPS_SpecificHumidity_IsbL-0650_RLatLon0.09_PT014H.grib2 2026-04-28 20:44 547K
20260428T18Z_MSC_RDPS_SpecificHumidity_IsbL-0700_RLatLon0.09_PT014H.grib2 2026-04-28 20:44 588K
20260428T18Z_MSC_RDPS_SpecificHumidity_IsbL-0750_RLatLon0.09_PT014H.grib2 2026-04-28 20:44 639K
20260428T18Z_MSC_RDPS_SpecificHumidity_IsbL-0800_RLatLon0.09_PT014H.grib2 2026-04-28 20:44 717K
20260428T18Z_MSC_RDPS_SpecificHumidity_IsbL-0850_RLatLon0.09_PT014H.grib2 2026-04-28 20:44 789K
20260428T18Z_MSC_RDPS_SpecificHumidity_IsbL-0875_RLatLon0.09_PT014H.grib2 2026-04-28 20:44 815K
20260428T18Z_MSC_RDPS_SpecificHumidity_IsbL-0900_RLatLon0.09_PT014H.grib2 2026-04-28 20:44 827K
20260428T18Z_MSC_RDPS_SpecificHumidity_IsbL-0925_RLatLon0.09_PT014H.grib2 2026-04-28 20:44 828K
20260428T18Z_MSC_RDPS_SpecificHumidity_IsbL-0950_RLatLon0.09_PT014H.grib2 2026-04-28 20:44 832K
20260428T18Z_MSC_RDPS_SpecificHumidity_IsbL-0970_RLatLon0.09_PT014H.grib2 2026-04-28 20:44 821K
20260428T18Z_MSC_RDPS_SpecificHumidity_IsbL-0985_RLatLon0.09_PT014H.grib2 2026-04-28 20:44 811K
20260428T18Z_MSC_RDPS_SpecificHumidity_IsbL-1000_RLatLon0.09_PT014H.grib2 2026-04-28 20:44 663K
20260428T18Z_MSC_RDPS_SpecificHumidity_IsbL-1015_RLatLon0.09_PT014H.grib2 2026-04-28 20:44 654K
20260428T18Z_MSC_RDPS_SpecificHumidity_Sfc_RLatLon0.09_PT014H.grib2 2026-04-28 20:44 289K
20260428T18Z_MSC_RDPS_StormRelativeHelicity_EtaL-10000_RLatLon0.09_PT014H.grib2 2026-04-28 20:44 1.1M
20260428T18Z_MSC_RDPS_StormSeverityIndex_EtaL-10000_RLatLon0.09_PT014H.grib2 2026-04-28 20:44 1.1M
20260428T18Z_MSC_RDPS_Thickness_IsbL-0850to0700_RLatLon0.09_PT014H.grib2 2026-04-28 20:44 177K
20260428T18Z_MSC_RDPS_Thickness_IsbL-1000to0500_RLatLon0.09_PT014H.grib2 2026-04-28 20:44 199K
20260428T18Z_MSC_RDPS_Thickness_IsbL-1000to0850_RLatLon0.09_PT014H.grib2 2026-04-28 20:44 260K
20260428T18Z_MSC_RDPS_TotalCloudCover_Sfc_RLatLon0.09_PT014H.grib2 2026-04-28 20:44 651K
20260428T18Z_MSC_RDPS_TotalTotalsIndex_Sfc_RLatLon0.09_PT014H.grib2 2026-04-28 20:44 2.4M
20260428T18Z_MSC_RDPS_UVIndex-ClearSky_Sfc_RLatLon0.09_PT014H.grib2 2026-04-28 20:44 88K
20260428T18Z_MSC_RDPS_UVIndex_Sfc_RLatLon0.09_PT014H.grib2 2026-04-28 20:44 157K
20260428T18Z_MSC_RDPS_UpwardLongwaveRadiationFlux_NTAtm_RLatLon0.09_PT014H.grib2 2026-04-28 20:44 491K
20260428T18Z_MSC_RDPS_UpwardShortwaveRadiationFlux_NTAtm_RLatLon0.09_PT014H.grib2 2026-04-28 20:44 135K
20260428T18Z_MSC_RDPS_VerticalVelocity_IsbL-0250_RLatLon0.09_PT014H.grib2 2026-04-28 20:44 565K
20260428T18Z_MSC_RDPS_VerticalVelocity_IsbL-0500_RLatLon0.09_PT014H.grib2 2026-04-28 20:44 549K
20260428T18Z_MSC_RDPS_VerticalVelocity_IsbL-0700_RLatLon0.09_PT014H.grib2 2026-04-28 20:44 588K
20260428T18Z_MSC_RDPS_VerticalVelocity_IsbL-0850_RLatLon0.09_PT014H.grib2 2026-04-28 20:44 685K
20260428T18Z_MSC_RDPS_VerticalWindShear_EtaL-6500_RLatLon0.09_PT014H.grib2 2026-04-28 20:44 1.2M
20260428T18Z_MSC_RDPS_WindChill_Sfc_RLatLon0.09_PT014H.grib2 2026-04-28 20:44 1.1M
20260428T18Z_MSC_RDPS_WindDir_AGL-10m_RLatLon0.09_PT014H.grib2 2026-04-28 20:44 968K
20260428T18Z_MSC_RDPS_WindDir_AGL-120m_RLatLon0.09_PT014H.grib2 2026-04-28 20:44 606K
20260428T18Z_MSC_RDPS_WindDir_AGL-40m_RLatLon0.09_PT014H.grib2 2026-04-28 20:44 637K
20260428T18Z_MSC_RDPS_WindDir_AGL-80m_RLatLon0.09_PT014H.grib2 2026-04-28 20:44 617K
20260428T18Z_MSC_RDPS_WindDir_IsbL-0001_RLatLon0.09_PT014H.grib2 2026-04-28 20:44 323K
20260428T18Z_MSC_RDPS_WindDir_IsbL-0005_RLatLon0.09_PT014H.grib2 2026-04-28 20:44 357K
20260428T18Z_MSC_RDPS_WindDir_IsbL-0010_RLatLon0.09_PT014H.grib2 2026-04-28 20:44 378K
20260428T18Z_MSC_RDPS_WindDir_IsbL-0020_RLatLon0.09_PT014H.grib2 2026-04-28 20:44 407K
20260428T18Z_MSC_RDPS_WindDir_IsbL-0030_RLatLon0.09_PT014H.grib2 2026-04-28 20:44 413K
20260428T18Z_MSC_RDPS_WindDir_IsbL-0050_RLatLon0.09_PT014H.grib2 2026-04-28 20:44 421K
20260428T18Z_MSC_RDPS_WindDir_IsbL-0100_RLatLon0.09_PT014H.grib2 2026-04-28 20:44 423K
20260428T18Z_MSC_RDPS_WindDir_IsbL-0150_RLatLon0.09_PT014H.grib2 2026-04-28 20:44 425K
20260428T18Z_MSC_RDPS_WindDir_IsbL-0175_RLatLon0.09_PT014H.grib2 2026-04-28 20:44 441K
20260428T18Z_MSC_RDPS_WindDir_IsbL-0200_RLatLon0.09_PT014H.grib2 2026-04-28 20:44 451K
20260428T18Z_MSC_RDPS_WindDir_IsbL-0225_RLatLon0.09_PT014H.grib2 2026-04-28 20:44 456K
20260428T18Z_MSC_RDPS_WindDir_IsbL-0250_RLatLon0.09_PT014H.grib2 2026-04-28 20:44 455K
20260428T18Z_MSC_RDPS_WindDir_IsbL-0275_RLatLon0.09_PT014H.grib2 2026-04-28 20:44 480K
20260428T18Z_MSC_RDPS_WindDir_IsbL-0300_RLatLon0.09_PT014H.grib2 2026-04-28 20:44 482K
20260428T18Z_MSC_RDPS_WindDir_IsbL-0350_RLatLon0.09_PT014H.grib2 2026-04-28 20:44 501K
20260428T18Z_MSC_RDPS_WindDir_IsbL-0400_RLatLon0.09_PT014H.grib2 2026-04-28 20:44 524K
20260428T18Z_MSC_RDPS_WindDir_IsbL-0450_RLatLon0.09_PT014H.grib2 2026-04-28 20:44 540K
20260428T18Z_MSC_RDPS_WindDir_IsbL-0500_RLatLon0.09_PT014H.grib2 2026-04-28 20:44 551K
20260428T18Z_MSC_RDPS_WindDir_IsbL-0550_RLatLon0.09_PT014H.grib2 2026-04-28 20:44 563K
20260428T18Z_MSC_RDPS_WindDir_IsbL-0600_RLatLon0.09_PT014H.grib2 2026-04-28 20:44 589K
20260428T18Z_MSC_RDPS_WindDir_IsbL-0650_RLatLon0.09_PT014H.grib2 2026-04-28 20:44 628K
20260428T18Z_MSC_RDPS_WindDir_IsbL-0700_RLatLon0.09_PT014H.grib2 2026-04-28 20:44 669K
20260428T18Z_MSC_RDPS_WindDir_IsbL-0750_RLatLon0.09_PT014H.grib2 2026-04-28 20:44 716K
20260428T18Z_MSC_RDPS_WindDir_IsbL-0800_RLatLon0.09_PT014H.grib2 2026-04-28 20:44 778K
20260428T18Z_MSC_RDPS_WindDir_IsbL-0850_RLatLon0.09_PT014H.grib2 2026-04-28 20:44 856K
20260428T18Z_MSC_RDPS_WindDir_IsbL-0875_RLatLon0.09_PT014H.grib2 2026-04-28 20:44 880K
20260428T18Z_MSC_RDPS_WindDir_IsbL-0900_RLatLon0.09_PT014H.grib2 2026-04-28 20:44 897K
20260428T18Z_MSC_RDPS_WindDir_IsbL-0925_RLatLon0.09_PT014H.grib2 2026-04-28 20:44 908K
20260428T18Z_MSC_RDPS_WindDir_IsbL-0950_RLatLon0.09_PT014H.grib2 2026-04-28 20:44 912K
20260428T18Z_MSC_RDPS_WindDir_IsbL-0970_RLatLon0.09_PT014H.grib2 2026-04-28 20:44 920K
20260428T18Z_MSC_RDPS_WindDir_IsbL-0985_RLatLon0.09_PT014H.grib2 2026-04-28 20:44 929K
20260428T18Z_MSC_RDPS_WindDir_IsbL-1000_RLatLon0.09_PT014H.grib2 2026-04-28 20:44 942K
20260428T18Z_MSC_RDPS_WindDir_IsbL-1015_RLatLon0.09_PT014H.grib2 2026-04-28 20:44 960K
20260428T18Z_MSC_RDPS_WindGust-Max_AGL-10m_RLatLon0.09_PT014H.grib2 2026-04-28 20:44 947K
20260428T18Z_MSC_RDPS_WindGust-Min_AGL-10m_RLatLon0.09_PT014H.grib2 2026-04-28 20:44 971K
20260428T18Z_MSC_RDPS_WindGust_AGL-10m_RLatLon0.09_PT014H.grib2 2026-04-28 20:44 941K
20260428T18Z_MSC_RDPS_WindSpeed_AGL-10m_RLatLon0.09_PT014H.grib2 2026-04-28 20:44 841K
20260428T18Z_MSC_RDPS_WindSpeed_AGL-120m_RLatLon0.09_PT014H.grib2 2026-04-28 20:44 550K
20260428T18Z_MSC_RDPS_WindSpeed_AGL-40m_RLatLon0.09_PT014H.grib2 2026-04-28 20:44 552K
20260428T18Z_MSC_RDPS_WindSpeed_AGL-80m_RLatLon0.09_PT014H.grib2 2026-04-28 20:44 551K
20260428T18Z_MSC_RDPS_WindSpeed_IsbL-0001_RLatLon0.09_PT014H.grib2 2026-04-28 20:44 332K
20260428T18Z_MSC_RDPS_WindSpeed_IsbL-0005_RLatLon0.09_PT014H.grib2 2026-04-28 20:44 295K
20260428T18Z_MSC_RDPS_WindSpeed_IsbL-0010_RLatLon0.09_PT014H.grib2 2026-04-28 20:44 306K
20260428T18Z_MSC_RDPS_WindSpeed_IsbL-0020_RLatLon0.09_PT014H.grib2 2026-04-28 20:44 322K
20260428T18Z_MSC_RDPS_WindSpeed_IsbL-0030_RLatLon0.09_PT014H.grib2 2026-04-28 20:44 320K
20260428T18Z_MSC_RDPS_WindSpeed_IsbL-0050_RLatLon0.09_PT014H.grib2 2026-04-28 20:44 457K
20260428T18Z_MSC_RDPS_WindSpeed_IsbL-0100_RLatLon0.09_PT014H.grib2 2026-04-28 20:44 487K
20260428T18Z_MSC_RDPS_WindSpeed_IsbL-0150_RLatLon0.09_PT014H.grib2 2026-04-28 20:44 391K
20260428T18Z_MSC_RDPS_WindSpeed_IsbL-0175_RLatLon0.09_PT014H.grib2 2026-04-28 20:44 440K
20260428T18Z_MSC_RDPS_WindSpeed_IsbL-0200_RLatLon0.09_PT014H.grib2 2026-04-28 20:44 458K
20260428T18Z_MSC_RDPS_WindSpeed_IsbL-0225_RLatLon0.09_PT014H.grib2 2026-04-28 20:44 463K
20260428T18Z_MSC_RDPS_WindSpeed_IsbL-0250_RLatLon0.09_PT014H.grib2 2026-04-28 20:44 467K
20260428T18Z_MSC_RDPS_WindSpeed_IsbL-0275_RLatLon0.09_PT014H.grib2 2026-04-28 20:44 485K
20260428T18Z_MSC_RDPS_WindSpeed_IsbL-0300_RLatLon0.09_PT014H.grib2 2026-04-28 20:44 482K
20260428T18Z_MSC_RDPS_WindSpeed_IsbL-0350_RLatLon0.09_PT014H.grib2 2026-04-28 20:44 491K
20260428T18Z_MSC_RDPS_WindSpeed_IsbL-0400_RLatLon0.09_PT014H.grib2 2026-04-28 20:44 474K
20260428T18Z_MSC_RDPS_WindSpeed_IsbL-0450_RLatLon0.09_PT014H.grib2 2026-04-28 20:44 472K
20260428T18Z_MSC_RDPS_WindSpeed_IsbL-0500_RLatLon0.09_PT014H.grib2 2026-04-28 20:44 470K
20260428T18Z_MSC_RDPS_WindSpeed_IsbL-0550_RLatLon0.09_PT014H.grib2 2026-04-28 20:44 469K
20260428T18Z_MSC_RDPS_WindSpeed_IsbL-0600_RLatLon0.09_PT014H.grib2 2026-04-28 20:44 594K
20260428T18Z_MSC_RDPS_WindSpeed_IsbL-0650_RLatLon0.09_PT014H.grib2 2026-04-28 20:44 611K
20260428T18Z_MSC_RDPS_WindSpeed_IsbL-0700_RLatLon0.09_PT014H.grib2 2026-04-28 20:44 632K
20260428T18Z_MSC_RDPS_WindSpeed_IsbL-0750_RLatLon0.09_PT014H.grib2 2026-04-28 20:44 659K
20260428T18Z_MSC_RDPS_WindSpeed_IsbL-0800_RLatLon0.09_PT014H.grib2 2026-04-28 20:44 703K
20260428T18Z_MSC_RDPS_WindSpeed_IsbL-0850_RLatLon0.09_PT014H.grib2 2026-04-28 20:44 763K
20260428T18Z_MSC_RDPS_WindSpeed_IsbL-0875_RLatLon0.09_PT014H.grib2 2026-04-28 20:44 783K
20260428T18Z_MSC_RDPS_WindSpeed_IsbL-0900_RLatLon0.09_PT014H.grib2 2026-04-28 20:44 844K
20260428T18Z_MSC_RDPS_WindSpeed_IsbL-0925_RLatLon0.09_PT014H.grib2 2026-04-28 20:44 856K
20260428T18Z_MSC_RDPS_WindSpeed_IsbL-0950_RLatLon0.09_PT014H.grib2 2026-04-28 20:44 857K
20260428T18Z_MSC_RDPS_WindSpeed_IsbL-0970_RLatLon0.09_PT014H.grib2 2026-04-28 20:44 859K
20260428T18Z_MSC_RDPS_WindSpeed_IsbL-0985_RLatLon0.09_PT014H.grib2 2026-04-28 20:44 854K
20260428T18Z_MSC_RDPS_WindSpeed_IsbL-1000_RLatLon0.09_PT014H.grib2 2026-04-28 20:44 849K
20260428T18Z_MSC_RDPS_WindSpeed_IsbL-1015_RLatLon0.09_PT014H.grib2 2026-04-28 20:44 840K
20260428T18Z_MSC_RDPS_WindU_AGL-10m_RLatLon0.09_PT014H.grib2 2026-04-28 20:44 379K
20260428T18Z_MSC_RDPS_WindU_AGL-120m_RLatLon0.09_PT014H.grib2 2026-04-28 20:44 417K
20260428T18Z_MSC_RDPS_WindU_AGL-40m_RLatLon0.09_PT014H.grib2 2026-04-28 20:44 420K
20260428T18Z_MSC_RDPS_WindU_AGL-80m_RLatLon0.09_PT014H.grib2 2026-04-28 20:44 419K
20260428T18Z_MSC_RDPS_WindU_IsbL-0001_RLatLon0.09_PT014H.grib2 2026-04-28 20:44 292K
20260428T18Z_MSC_RDPS_WindU_IsbL-0005_RLatLon0.09_PT014H.grib2 2026-04-28 20:44 330K
20260428T18Z_MSC_RDPS_WindU_IsbL-0010_RLatLon0.09_PT014H.grib2 2026-04-28 20:44 338K
20260428T18Z_MSC_RDPS_WindU_IsbL-0020_RLatLon0.09_PT014H.grib2 2026-04-28 20:44 352K
20260428T18Z_MSC_RDPS_WindU_IsbL-0030_RLatLon0.09_PT014H.grib2 2026-04-28 20:44 350K
20260428T18Z_MSC_RDPS_WindU_IsbL-0050_RLatLon0.09_PT014H.grib2 2026-04-28 20:44 345K
20260428T18Z_MSC_RDPS_WindU_IsbL-0100_RLatLon0.09_PT014H.grib2 2026-04-28 20:44 345K
20260428T18Z_MSC_RDPS_WindU_IsbL-0150_RLatLon0.09_PT014H.grib2 2026-04-28 20:44 407K
20260428T18Z_MSC_RDPS_WindU_IsbL-0175_RLatLon0.09_PT014H.grib2 2026-04-28 20:44 432K
20260428T18Z_MSC_RDPS_WindU_IsbL-0200_RLatLon0.09_PT014H.grib2 2026-04-28 20:44 348K
20260428T18Z_MSC_RDPS_WindU_IsbL-0225_RLatLon0.09_PT014H.grib2 2026-04-28 20:44 352K
20260428T18Z_MSC_RDPS_WindU_IsbL-0250_RLatLon0.09_PT014H.grib2 2026-04-28 20:44 353K
20260428T18Z_MSC_RDPS_WindU_IsbL-0275_RLatLon0.09_PT014H.grib2 2026-04-28 20:44 369K
20260428T18Z_MSC_RDPS_WindU_IsbL-0300_RLatLon0.09_PT014H.grib2 2026-04-28 20:44 468K
20260428T18Z_MSC_RDPS_WindU_IsbL-0350_RLatLon0.09_PT014H.grib2 2026-04-28 20:44 478K
20260428T18Z_MSC_RDPS_WindU_IsbL-0400_RLatLon0.09_PT014H.grib2 2026-04-28 20:44 477K
20260428T18Z_MSC_RDPS_WindU_IsbL-0450_RLatLon0.09_PT014H.grib2 2026-04-28 20:44 475K
20260428T18Z_MSC_RDPS_WindU_IsbL-0500_RLatLon0.09_PT014H.grib2 2026-04-28 20:44 474K
20260428T18Z_MSC_RDPS_WindU_IsbL-0550_RLatLon0.09_PT014H.grib2 2026-04-28 20:44 474K
20260428T18Z_MSC_RDPS_WindU_IsbL-0600_RLatLon0.09_PT014H.grib2 2026-04-28 20:44 463K
20260428T18Z_MSC_RDPS_WindU_IsbL-0650_RLatLon0.09_PT014H.grib2 2026-04-28 20:44 479K
20260428T18Z_MSC_RDPS_WindU_IsbL-0700_RLatLon0.09_PT014H.grib2 2026-04-28 20:44 499K
20260428T18Z_MSC_RDPS_WindU_IsbL-0750_RLatLon0.09_PT014H.grib2 2026-04-28 20:44 525K
20260428T18Z_MSC_RDPS_WindU_IsbL-0800_RLatLon0.09_PT014H.grib2 2026-04-28 20:44 565K
20260428T18Z_MSC_RDPS_WindU_IsbL-0850_RLatLon0.09_PT014H.grib2 2026-04-28 20:44 629K
20260428T18Z_MSC_RDPS_WindU_IsbL-0875_RLatLon0.09_PT014H.grib2 2026-04-28 20:44 645K
20260428T18Z_MSC_RDPS_WindU_IsbL-0900_RLatLon0.09_PT014H.grib2 2026-04-28 20:44 648K
20260428T18Z_MSC_RDPS_WindU_IsbL-0925_RLatLon0.09_PT014H.grib2 2026-04-28 20:44 660K
20260428T18Z_MSC_RDPS_WindU_IsbL-0950_RLatLon0.09_PT014H.grib2 2026-04-28 20:44 650K
20260428T18Z_MSC_RDPS_WindU_IsbL-0970_RLatLon0.09_PT014H.grib2 2026-04-28 20:44 650K
20260428T18Z_MSC_RDPS_WindU_IsbL-0985_RLatLon0.09_PT014H.grib2 2026-04-28 20:44 646K
20260428T18Z_MSC_RDPS_WindU_IsbL-1000_RLatLon0.09_PT014H.grib2 2026-04-28 20:44 642K
20260428T18Z_MSC_RDPS_WindU_IsbL-1015_RLatLon0.09_PT014H.grib2 2026-04-28 20:44 636K
20260428T18Z_MSC_RDPS_WindV_AGL-10m_RLatLon0.09_PT014H.grib2 2026-04-28 20:44 430K
20260428T18Z_MSC_RDPS_WindV_AGL-120m_RLatLon0.09_PT014H.grib2 2026-04-28 20:44 534K
20260428T18Z_MSC_RDPS_WindV_AGL-40m_RLatLon0.09_PT014H.grib2 2026-04-28 20:44 536K
20260428T18Z_MSC_RDPS_WindV_AGL-80m_RLatLon0.09_PT014H.grib2 2026-04-28 20:44 535K
20260428T18Z_MSC_RDPS_WindV_IsbL-0001_RLatLon0.09_PT014H.grib2 2026-04-28 20:44 245K
20260428T18Z_MSC_RDPS_WindV_IsbL-0005_RLatLon0.09_PT014H.grib2 2026-04-28 20:44 287K
20260428T18Z_MSC_RDPS_WindV_IsbL-0010_RLatLon0.09_PT014H.grib2 2026-04-28 20:44 297K
20260428T18Z_MSC_RDPS_WindV_IsbL-0020_RLatLon0.09_PT014H.grib2 2026-04-28 20:44 353K
20260428T18Z_MSC_RDPS_WindV_IsbL-0030_RLatLon0.09_PT014H.grib2 2026-04-28 20:44 314K
20260428T18Z_MSC_RDPS_WindV_IsbL-0050_RLatLon0.09_PT014H.grib2 2026-04-28 20:44 345K
20260428T18Z_MSC_RDPS_WindV_IsbL-0100_RLatLon0.09_PT014H.grib2 2026-04-28 20:44 338K
20260428T18Z_MSC_RDPS_WindV_IsbL-0150_RLatLon0.09_PT014H.grib2 2026-04-28 20:44 404K
20260428T18Z_MSC_RDPS_WindV_IsbL-0175_RLatLon0.09_PT014H.grib2 2026-04-28 20:44 334K
20260428T18Z_MSC_RDPS_WindV_IsbL-0200_RLatLon0.09_PT014H.grib2 2026-04-28 20:44 348K
20260428T18Z_MSC_RDPS_WindV_IsbL-0225_RLatLon0.09_PT014H.grib2 2026-04-28 20:44 352K
20260428T18Z_MSC_RDPS_WindV_IsbL-0250_RLatLon0.09_PT014H.grib2 2026-04-28 20:44 378K
20260428T18Z_MSC_RDPS_WindV_IsbL-0275_RLatLon0.09_PT014H.grib2 2026-04-28 20:44 391K
20260428T18Z_MSC_RDPS_WindV_IsbL-0300_RLatLon0.09_PT014H.grib2 2026-04-28 20:44 387K
20260428T18Z_MSC_RDPS_WindV_IsbL-0350_RLatLon0.09_PT014H.grib2 2026-04-28 20:44 372K
20260428T18Z_MSC_RDPS_WindV_IsbL-0400_RLatLon0.09_PT014H.grib2 2026-04-28 20:44 373K
20260428T18Z_MSC_RDPS_WindV_IsbL-0450_RLatLon0.09_PT014H.grib2 2026-04-28 20:44 372K
20260428T18Z_MSC_RDPS_WindV_IsbL-0500_RLatLon0.09_PT014H.grib2 2026-04-28 20:44 474K
20260428T18Z_MSC_RDPS_WindV_IsbL-0550_RLatLon0.09_PT014H.grib2 2026-04-28 20:44 472K
20260428T18Z_MSC_RDPS_WindV_IsbL-0600_RLatLon0.09_PT014H.grib2 2026-04-28 20:44 478K
20260428T18Z_MSC_RDPS_WindV_IsbL-0650_RLatLon0.09_PT014H.grib2 2026-04-28 20:44 495K
20260428T18Z_MSC_RDPS_WindV_IsbL-0700_RLatLon0.09_PT014H.grib2 2026-04-28 20:44 512K
20260428T18Z_MSC_RDPS_WindV_IsbL-0750_RLatLon0.09_PT014H.grib2 2026-04-28 20:44 535K
20260428T18Z_MSC_RDPS_WindV_IsbL-0800_RLatLon0.09_PT014H.grib2 2026-04-28 20:44 573K
20260428T18Z_MSC_RDPS_WindV_IsbL-0850_RLatLon0.09_PT014H.grib2 2026-04-28 20:44 624K
20260428T18Z_MSC_RDPS_WindV_IsbL-0875_RLatLon0.09_PT014H.grib2 2026-04-28 20:44 641K
20260428T18Z_MSC_RDPS_WindV_IsbL-0900_RLatLon0.09_PT014H.grib2 2026-04-28 20:44 644K
20260428T18Z_MSC_RDPS_WindV_IsbL-0925_RLatLon0.09_PT014H.grib2 2026-04-28 20:44 653K
20260428T18Z_MSC_RDPS_WindV_IsbL-0950_RLatLon0.09_PT014H.grib2 2026-04-28 20:44 653K
20260428T18Z_MSC_RDPS_WindV_IsbL-0970_RLatLon0.09_PT014H.grib2 2026-04-28 20:44 795K
20260428T18Z_MSC_RDPS_WindV_IsbL-0985_RLatLon0.09_PT014H.grib2 2026-04-28 20:44 788K
20260428T18Z_MSC_RDPS_WindV_IsbL-1000_RLatLon0.09_PT014H.grib2 2026-04-28 20:44 781K
20260428T18Z_MSC_RDPS_WindV_IsbL-1015_RLatLon0.09_PT014H.grib2 2026-04-28 20:44 821K